This demonstration page uses our WeatherBlox Daily Observations layout. Learn more.

Left ArrowRight Arrow

47.50024, -111.30081

Hourly Observations for June 1, 2022

Temp ( °F °C ) Dew Point ( °F °C ) Humidity (%) Winds ( mph kmh ) Pressure ( in mb ) Visibility ( mi km ) Precip ( " mm )
12:53 am 00:53 Partly Cloudy 46 7.8 28 -2.2 50 50 NE 7 11 30.22 1023 10 16 0.00 0.00
1:53 am 01:53 Clear 48 8.9 29 -1.7 48 48 E 8 13 30.20 1023 10 16 0.00 0.00
2:53 am 02:53 Clear 46 7.8 29 -1.7 51 51 NE 8 13 30.20 1023 10 16 0.00 0.00
3:53 am 03:53 Cloudy 45 7.2 32 0 61 61 S 6 9 30.19 1022 10 16 0.00 0.00
4:53 am 04:53 Mostly Clear 41 5 33 0.6 73 73 SW 7 11 30.21 1023 10 16 0.00 0.00
5:53 am 05:53 Mostly Sunny 42 5.6 33 0.6 71 71 SW 5 7 30.21 1023 10 16 0.00 0.00
6:53 am 06:53 Mostly Sunny 45 7.2 35 1.7 68 68 S 3 6 30.21 1023 10 16 0.00 0.00
7:53 am 07:53 Sunny 50 10 37 2.8 61 61 W 6 9 30.21 1023 10 16 0.00 0.00
8:53 am 08:53 Sunny 52 11.1 37 2.8 57 57 SW 8 13 30.22 1023 10 16 0.00 0.00
9:53 am 09:53 Sunny 55 12.8 35 1.7 47 47 VRB 5 7 30.20 1023 10 16 0.00 0.00
10:53 am 10:53 Sunny 60 15.6 35 1.7 39 39 VRB 3 6 30.19 1022 10 16 0.00 0.00
11:53 am 11:53 Sunny 62 16.7 30 -1.1 30 30 VRB 5 7 30.18 1022 10 16 0.00 0.00
12:53 pm 12:53 Sunny 65 18.3 30 -1.1 27 27 E 8 13 30.16 1021 10 16 0.00 0.00
1:53 pm 13:53 Partly Cloudy 62 16.7 26 -3.3 25 25 Calm 30.15 1021 10 16 0.00 0.00
2:53 pm 14:53 Cloudy 64 17.8 29 -1.7 27 27 E 5 7 30.15 1021 10 16 0.00 0.00
3:53 pm 15:53 Cloudy 64 17.8 28 -2.2 26 26 S 7 11 30.14 1021 10 16 0.00 0.00
4:53 pm 16:53 Mostly Cloudy 66 18.9 30 -1.1 26 26 VRB 3 6 30.13 1020 10 16 0.00 0.00
5:53 pm 17:53 Mostly Sunny 64 17.8 29 -1.7 27 27 SSE 6 9 30.12 1020 10 16 0.00 0.00
6:53 pm 18:53 Mostly Cloudy 64 17.8 26 -3.3 24 24 VRB 5 7 30.10 1019 10 16 0.00 0.00
7:53 pm 19:53 Mostly Sunny 61 16.1 27 -2.8 27 27 ESE 6 9 30.09 1019 10 16 0.00 0.00
8:53 pm 20:53 Sunny 59 15 31 -0.6 35 35 SSE 3 6 30.09 1019 10 16 0.00 0.00
9:53 pm 21:53 Clear 54 12.2 30 -1.1 40 40 Calm 30.11 1020 10 16 0.00 0.00
10:53 pm 22:53 Clear 51 10.6 30 -1.1 44 44 Calm 30.11 1020 10 16 0.00 0.00
11:53 pm 23:53 Clear 48 8.9 30 -1.1 50 50 E 6 9 30.11 1020 10 16 0.00 0.00

Powered by AerisWeather